Flag for U.S.A. Weather past 2 weeks in Asheville, North Carolina, U.S.A.

Now
41 °F

Overcast.


Feels Like: 35 °F
Forecast: 38 / 46 °F
Wind: 9 mph from South

Location: Asheville Regional Airport

Current Time: Dec 21, 2014 at 9:29:30 PM

Latest Report: Dec 21, 2014 at 9:01 PM


Visibility: 8 mi

Pressure: 30.16 "Hg

Humidity: 86%

Dew point: 37 °F

Location of AshevilleLocation

Historic Weather in Asheville — Graph

°F

Asheville temperature yesterday

Maximum temperature yesterday: 43 °F (at 1:54 PM)
Minimum temperature yesterday: 38 °F (at 5:54 AM)
Average temperature yesterday: 40 °F

Past Weeks' High & Low Weather Summary

 TemperatureHumidityPressure
High62 °F (Dec 16, 12:54 PM)96% (Dec 21, 2:01 AM)30.41 "Hg (Dec 21, 2:01 AM)
Low23 °F (Dec 15, 7:54 AM)12% (Dec 12, 2:54 PM)29.82 "Hg (Dec 16, 12:54 PM)
Average40 °F64%30.14 "Hg
* Reported Dec 6 7:54 PM — Dec 21 7:54 PM, Asheville, Weather by CustomWeather, © 2014

Note: Actual official high and low records may vary slightly from our data, if they occured in-between our weather recording intervals... More about our weather records

Advertising

Asheville weather history for previous 24 hours

 ConditionsComfort  
Time TempWeatherWind HumidityBarometerVisibility
7:54 PM
Dec 21
42 °FOvercast.3 mph82%30.16 "Hg10 mi
6:54 PM42 °FOvercast.6 mph82%30.16 "Hg10 mi
5:54 PM43 °FOvercast.8 mph79%30.14 "Hg10 mi
4:54 PM43 °FOvercast.6 mph79%30.14 "Hg10 mi
3:54 PM45 °FScattered clouds.9 mph76%30.13 "Hg10 mi
2:54 PM47 °FOvercast.10 mph71%30.13 "Hg10 mi
1:54 PM47 °FMore clouds than sun.9 mph71%30.14 "Hg10 mi
12:54 PM46 °FBroken clouds.No wind71%30.16 "Hg10 mi
11:54 AM44 °FOvercast.6 mph76%30.20 "Hg10 mi
10:54 AM43 °FOvercast.3 mph79%30.23 "Hg10 mi
9:54 AM41 °FLow clouds.5 mph89%30.24 "Hg9 mi
8:54 AM40 °FOvercast.5 mph93%30.24 "Hg8 mi
7:54 AM39 °FOvercast.No wind93%30.22 "Hg9 mi
6:54 AM39 °FMostly cloudy.3 mph93%30.22 "Hg7 mi
5:54 AM39 °FFog.No wind93%30.20 "Hg6 mi
4:54 AM39 °FFog.No wind96%30.20 "Hg4 mi
3:54 AM39 °FFog.5 mph96%30.20 "Hg1 mi
2:54 AM39 °FFog.No wind96%30.21 "Hg1 mi
2:01 AM39 °FFog.No wind96%30.20 "Hg1 mi
12:54 AM39 °FFog.3 mph93%30.22 "Hg4 mi
11:54 PM
Dec 20
39 °FFog.5 mph93%30.22 "Hg3 mi
10:54 PM39 °FFog.5 mph93%30.22 "Hg6 mi
9:54 PM40 °FLow clouds.5 mph89%30.21 "Hg7 mi
Weather by CustomWeather, © 2014

See weather overviewHow to use our weather pages